Colima, Mexico

9:33 PM CDT on June 22, 2017 (GMT -0500)
Colima

Weather History for MMIA - January, 2013

Change the Weather History Date:

Monday, January 7, 2013

  Actual Average Record
Temperature  
Mean Temperature 76 °F -  
Max Temperature 90 °F 82 °F 98 °F (2015)
Min Temperature 63 °F 64 °F 59 °F (1998)
Cooling Degree Days 12    
Growing Degree Days 26 (Base 50)    
Moisture  
Dew Point 61 °F    
Average Humidity 60    
Maximum Humidity 84    
Minimum Humidity 23    
Precipitation  
Precipitation 0.00 in - - ()
Sea Level Pressure  
Sea Level Pressure 29.96 in    
Wind  
Wind Speed 5 mph ()    
Max Wind Speed 14 mph    
Max Gust Speed -    
Visibility 7.3 miles    
Events      
Averages and records for this station are not official NWS values.
T = Trace of Precipitation, MM = Missing Value Source: Averaged Metar Reports

Daily Weather History Graph

Daily Weather History Graph

Search for Another Location

Airport or City:

Trip Planner

Search our weather history database for the weather conditions in past years. The results will help you decide how hot, cold, wet, or windy it might be!

Date:

Astronomy

Jan. 07, 2013 Rise Set
Actual Time 7:29 AM CST 6:31 PM CST
Civil Twilight 7:06 AM CST 6:55 PM CST
Nautical Twilight 6:38 AM CST 7:22 PM CST
Astronomical Twilight 6:12 AM CST 7:49 PM CST
Moon 3:05 AM CST (1/7) 2:38 PM CST (1/7)
Length of Visible Light 11h 49m
Length of Day
11h 02m
Waning Crescent, 22% of the Moon is Illuminated
Jan 7
Waning Crescent
Jan 11
New
Jan 18
First Quarter
Jan 26
Full
Feb 3
Last Quarter

Hourly Weather History & Observations

Time (CST) Temp. Heat Index Dew Point Humidity Pressure Visibility Wind Dir Wind Speed Gust Speed Precip Events Conditions
5:56 AM 69.8 °F - 55.4 °F 60% 29.99 in 8.0 mi North 9.2 mph - N/A   Clear
6:51 AM 68.0 °F - 55.4 °F 64% 29.99 in 8.0 mi North 11.5 mph - N/A   Clear
7:52 AM 68.0 °F - 55.4 °F 64% 30.01 in 8.0 mi North 11.5 mph - N/A   Clear
8:47 AM 71 °F - 61 °F 64% 29.98 in 4 mi NE 2.2 mph - -   Haze
8:52 AM 71.6 °F - 59.0 °F 64% 30.03 in 8.0 mi Calm Calm - N/A   Scattered Clouds
9:41 AM 71.6 °F - 60.8 °F 69% 30.05 in 8.0 mi Calm Calm - N/A   Scattered Clouds
10:49 AM 77.0 °F - 60.8 °F 57% 30.06 in 8.0 mi Calm Calm - N/A   Scattered Clouds
11:41 AM 81 °F - 63 °F 44% 29.96 in 5 mi NW 2.2 mph - -   Haze
11:51 AM 78.8 °F - 59.0 °F 51% 30.02 in 8.0 mi Calm Calm - N/A   Scattered Clouds
12:46 PM 80.6 °F 80.8 °F 57.2 °F 45% 29.98 in 8.0 mi Calm Calm - N/A   Scattered Clouds
1:48 PM 82.4 °F 82.0 °F 57.2 °F 42% 29.94 in 8.0 mi Calm Calm - N/A   Scattered Clouds
2:40 PM 90 °F - 57 °F 23% 29.82 in 6 mi NE 2.2 mph - -   Haze
2:40 PM 82.4 °F 81.7 °F 55.4 °F 39% 29.92 in 8.0 mi West 9.2 mph - N/A   Scattered Clouds
3:43 PM 82.4 °F 81.7 °F 55.4 °F 39% 29.91 in 8.0 mi West 11.5 mph - N/A   Scattered Clouds
4:46 PM 78.8 °F - 64.4 °F 61% 29.91 in 8.0 mi SW 13.8 mph - N/A   Mostly Cloudy
5:40 PM 80 °F - 64 °F 48% 29.83 in 6 mi South 6.7 mph - -   Haze
5:44 PM 75.2 °F - 64.4 °F 69% 29.94 in 8.0 mi WSW 11.5 mph - N/A   Mostly Cloudy
6:49 PM 71.6 °F - 64.4 °F 78% 29.96 in 8.0 mi West 11.5 mph - N/A   Mostly Cloudy
7:40 PM 69.8 °F - 64.4 °F 83% 29.98 in 8.0 mi Calm Calm - N/A   Mostly Cloudy
8:40 PM 69.8 °F - 64.4 °F 83% 29.99 in 8.0 mi West 6.9 mph - N/A   Scattered Clouds
8:55 PM 72 °F - 67 °F 81% 29.90 in 5 mi East 4.5 mph - -   Haze
9:40 PM 71.6 °F - 64.4 °F 78% 30.00 in 8.0 mi Calm Calm - N/A   Clear
11:47 PM 70 °F - 66 °F 84% 29.88 in 5 mi NE 2.2 mph - -   Haze